Location: La Brionne
(46.1728°N, 1.7849°E)
Time: 22:54:50
(UTC+00:00)

CARTOSAT-1 - Pass Details

Date: 16 June 2021
Orbit: 616 x 619 km, 97.8° (Epoch: 02 August)

Event Time Altitude Azimuth Distance (km) Brightness Sun altitude
Exits shadow 21:11:01 14° 165° (SSE) 1,737 5.3 -11.3°
Maximum altitude 21:14:44 89° 92° (E) 625 3.5 -11.7°
Drops below altitude 10° 21:19:05 10° 347° (NNW) 1,995 7.3 -12.1°
Sets 21:21:17 0° 348° (NNW) 2,906 8.4 -12.3°
